Orbital Elements at Epoch 2459000.5 (2020-May-31.0) TDB
Reference: JPL 28 (heliocentric ecliptic J2000)
Element | Value | Uncertainty (1-sigma) | Units |
e | .1593447989026204 | 3.978e-08 | |
a | 2.591322552539291 | 1.0534e-08 | au |
q | 2.178408781513092 | 1.0451e-07 | au |
i | 13.53811597552561 | 4.5978e-06 | deg |
node | 354.3715763797413 | 1.8576e-05 | deg |
peri | 83.93908469466746 | 2.4918e-05 | deg |
M | 308.7929822039031 | 1.4689e-05 | deg |
tp | 2459217.224306688712 (2021-Jan-02.72430669) | 6.2201e-05 | TDB |
period | 1523.633942492221 4.17 | 9.2905e-06 2.544e-08 | d yr |
n | .2362772250998459 | 1.4407e-09 | deg/d |
Q | 3.004236323565489 | 1.2212e-08 | au |
|
| | Orbit Determination Parameters
Additional Information
|